Location: Camp at the Woods
(43.2055°N, 93.0905°W)
Time: 01:59:30
(UTC+00:00)

Cosmos 2227 Rocket - Pass Details

Date: 26 May 2025
Orbit: 837 x 844 km, 71.0° (Epoch: 12 June)

Event Time Altitude Azimuth Distance (km) Brightness Sun altitude
Exits shadow 07:49:39 45° 221° (SW) 1,129 2.4 -21.6°
Maximum altitude 07:51:25 75° 295° (WNW) 870 2.2 -21.5°
Drops below altitude 10° 07:57:05 10° 22° (NNE) 2,464 5.8 -21.0°
Sets 07:59:33 0° 24° (NNE) 3,403 6.9 -20.8°
